Weather History for Wheaton NDB, MN

Change the Weather History Date:

Friday, November 1, 2013

  Actual Average Record
Temperature  
Mean Temperature 42 °F -  
Max Temperature 48 °F 50 °F 81 °F (1950)
Min Temperature 37 °F 32 °F 8 °F (1984)
Degree Days  
Heating Degree Days 22    
Moisture  
Dew Point 39 °F    
Average Humidity 86    
Maximum Humidity 93    
Minimum Humidity 76    
Precipitation  
Precipitation 0.00 in - - ()
Sea Level Pressure  
Sea Level Pressure 29.70 in    
Wind  
Wind Speed 9 mph (WNW)    
Max Wind Speed 20 mph    
Max Gust Speed 23 mph    
Visibility 10 miles    
Events Rain    
Averages and records for this station are not official NWS values.
T = Trace of Precipitation, MM = Missing Value Source: NWS Daily Summary

Daily Weather History Graph

Daily Weather History Graph

Search for Another Location

Airport:

Trip Planner

Search our weather history database for the weather conditions in past years. The results will help you decide how hot, cold, wet, or windy it might be!

Date:

Astronomy

Nov. 01, 2013 Rise Set
Actual Time 8:06 AM CDT 6:12 PM CDT
Civil Twilight 7:35 AM CDT 6:43 PM CDT
Nautical Twilight 7:00 AM CDT 7:18 PM CDT
Astronomical Twilight 6:25 AM CDT 7:53 PM CDT
Moon 5:54 AM CDT (11/1) 5:09 PM CDT (11/1)
Length of Visible Light 11h 07m
Length of Day
10h 05m
Waning Crescent, 4% of the Moon is Illuminated
Nov 1
Waning Crescent
Nov 3
New
Nov 9
First Quarter
Nov 17
Full
Nov 25
Last Quarter

Hourly Weather History & Observations

Time (CDT) Temp. Windchill Dew Point Humidity Pressure Visibility Wind Dir Wind Speed Gust Speed Precip Events Conditions
12:15 AM 42.8 °F 38.0 °F 37.4 °F 81% 29.51 in 10.0 mi NW 8.1 mph - N/A   Scattered Clouds
12:34 AM 42.8 °F 38.0 °F 37.4 °F 81% 29.51 in 10.0 mi WNW 8.1 mph - N/A   Scattered Clouds
12:55 AM 42.8 °F 37.5 °F 37.4 °F 81% 29.51 in 10.0 mi WNW 9.2 mph - N/A   Mostly Cloudy
1:15 AM 41.0 °F 34.7 °F 37.4 °F 87% 29.52 in 10.0 mi WNW 10.4 mph - N/A   Mostly Cloudy
1:35 AM 41.0 °F 35.2 °F 37.4 °F 87% 29.52 in 10.0 mi WNW 9.2 mph - N/A   Scattered Clouds
1:55 AM 41.0 °F 35.8 °F 37.4 °F 87% 29.53 in 10.0 mi WNW 8.1 mph - N/A   Clear
2:15 AM 39.2 °F 34.2 °F 37.4 °F 93% 29.54 in 10.0 mi WNW 6.9 mph - N/A   Clear
2:35 AM 39.2 °F 34.2 °F 35.6 °F 87% 29.54 in 10.0 mi WNW 6.9 mph - N/A   Clear
2:54 AM 39.2 °F 35.0 °F 35.6 °F 87% 29.55 in 10.0 mi West 5.8 mph - N/A   Clear
3:14 AM 37.4 °F 32.1 °F 35.6 °F 93% 29.55 in 10.0 mi West 6.9 mph - N/A   Clear
3:35 AM 37.4 °F 32.8 °F 35.6 °F 93% 29.56 in 10.0 mi West 5.8 mph - N/A   Clear
3:55 AM 37.4 °F 31.4 °F 35.6 °F 93% 29.57 in 10.0 mi West 8.1 mph - N/A   Clear
4:15 AM 37.4 °F 32.8 °F 35.6 °F 93% 29.57 in 10.0 mi West 5.8 mph - N/A   Clear
4:34 AM 37.4 °F 32.8 °F 35.6 °F 93% 29.57 in 10.0 mi West 5.8 mph - N/A   Clear
4:55 AM 37.4 °F 33.8 °F 35.6 °F 93% 29.57 in 10.0 mi West 4.6 mph - N/A   Clear
5:15 AM 37.4 °F 32.8 °F 35.6 °F 93% 29.58 in 10.0 mi West 5.8 mph - N/A   Clear
5:34 AM 37.4 °F 33.8 °F 35.6 °F 93% 29.58 in 10.0 mi West 4.6 mph - N/A   Clear
5:54 AM 37.4 °F 33.8 °F 35.6 °F 93% 29.59 in 10.0 mi West 4.6 mph - N/A   Clear
6:15 AM 37.4 °F 32.8 °F 35.6 °F 93% 29.59 in 10.0 mi West 5.8 mph - N/A   Clear
6:35 AM 37.4 °F 32.8 °F 35.6 °F 93% 29.60 in 10.0 mi West 5.8 mph - N/A   Clear
6:54 AM 37.4 °F 33.8 °F 35.6 °F 93% 29.60 in 10.0 mi West 4.6 mph - N/A   Clear
7:14 AM 37.4 °F 34.9 °F 35.6 °F 93% 29.60 in 10.0 mi West 3.5 mph - N/A   Clear
7:34 AM 37.4 °F 32.8 °F 35.6 °F 93% 29.60 in 10.0 mi West 5.8 mph - N/A   Clear
7:54 AM 37.4 °F 32.8 °F 35.6 °F 93% 29.61 in 10.0 mi West 5.8 mph - N/A   Clear
8:14 AM 39.2 °F 33.6 °F 35.6 °F 87% 29.61 in 10.0 mi West 8.1 mph - N/A   Clear
8:35 AM 39.2 °F 34.2 °F 35.6 °F 87% 29.62 in 10.0 mi West 6.9 mph - N/A   Clear
8:55 AM 39.2 °F 34.2 °F 35.6 °F 87% 29.63 in 10.0 mi West 6.9 mph - N/A   Clear
9:15 AM 41.0 °F 35.8 °F 37.4 °F 87% 29.63 in 10.0 mi West 8.1 mph - N/A   Scattered Clouds
9:35 AM 41.0 °F 34.7 °F 37.4 °F 87% 29.64 in 10.0 mi West 10.4 mph - N/A   Mostly Cloudy
9:54 AM 42.8 °F 37.0 °F 37.4 °F 81% 29.64 in 10.0 mi West 10.4 mph - N/A   Scattered Clouds
10:14 AM 44.6 °F 38.4 °F 39.2 °F 81% 29.64 in 10.0 mi West 12.7 mph 17.3 mph N/A   Scattered Clouds
10:34 AM 46.4 °F 40.4 °F 39.2 °F 76% 29.65 in 10.0 mi WNW 13.8 mph - N/A   Overcast
10:54 AM 46.4 °F 41.1 °F 39.2 °F 76% 29.65 in 10.0 mi WNW 11.5 mph 19.6 mph N/A   Scattered Clouds
11:14 AM 48.2 °F - 41.0 °F 76% 29.65 in 10.0 mi WNW 16.1 mph 23.0 mph N/A   Scattered Clouds
11:34 AM 46.4 °F 39.8 °F 39.2 °F 76% 29.66 in 10.0 mi West 16.1 mph 20.7 mph N/A   Mostly Cloudy
11:54 AM 46.4 °F 39.8 °F 39.2 °F 76% 29.67 in 10.0 mi WNW 16.1 mph 23.0 mph N/A   Overcast
12:14 PM 48.2 °F - 41.0 °F 76% 29.67 in 10.0 mi WNW 13.8 mph 19.6 mph N/A   Overcast
12:34 PM 48.2 °F - 41.0 °F 76% 29.68 in 10.0 mi WNW 15.0 mph 23.0 mph N/A   Mostly Cloudy
12:54 PM 48.2 °F - 41.0 °F 76% 29.69 in 10.0 mi WNW 15.0 mph 20.7 mph N/A   Mostly Cloudy
1:14 PM 48.2 °F - 42.8 °F 82% 29.69 in 10.0 mi WNW 13.8 mph 18.4 mph N/A   Mostly Cloudy
1:34 PM 48.2 °F - 41.0 °F 76% 29.69 in 10.0 mi WNW 12.7 mph 21.9 mph N/A   Overcast
1:54 PM 48.2 °F - 41.0 °F 76% 29.70 in 10.0 mi WNW 19.6 mph - N/A   Overcast
2:14 PM 46.4 °F 39.5 °F 41.0 °F 81% 29.71 in 10.0 mi WNW 17.3 mph 20.7 mph N/A   Overcast
2:35 PM 46.4 °F 39.8 °F 41.0 °F 81% 29.71 in 10.0 mi WNW 16.1 mph 21.9 mph N/A   Overcast
2:54 PM 46.4 °F 40.7 °F 42.8 °F 87% 29.73 in 10.0 mi WNW 12.7 mph - N/A   Light Drizzle
3:14 PM 46.4 °F 41.5 °F 42.8 °F 87% 29.74 in 10.0 mi WNW 10.4 mph - N/A   Drizzle
3:34 PM 46.4 °F 41.9 °F 42.8 °F 87% 29.74 in 10.0 mi WNW 9.2 mph - N/A   Mostly Cloudy
3:55 PM 46.4 °F 41.5 °F 42.8 °F 87% 29.75 in 10.0 mi WNW 10.4 mph - N/A Rain Light Rain
4:15 PM 46.4 °F 41.5 °F 42.8 °F 87% 29.76 in 10.0 mi WNW 10.4 mph - N/A   Mostly Cloudy
4:35 PM 46.4 °F 41.9 °F 42.8 °F 87% 29.78 in 10.0 mi WNW 9.2 mph - N/A   Scattered Clouds
4:55 PM 46.4 °F 41.9 °F 42.8 °F 87% 29.79 in 10.0 mi WNW 9.2 mph - N/A   Scattered Clouds
5:14 PM 48.2 °F - 42.8 °F 82% 29.80 in 10.0 mi WNW 6.9 mph - N/A   Mostly Cloudy
5:34 PM 46.4 °F 42.9 °F 42.8 °F 87% 29.81 in 10.0 mi West 6.9 mph - N/A   Overcast
5:54 PM 46.4 °F 42.9 °F 42.8 °F 87% 29.82 in 10.0 mi West 6.9 mph - N/A   Mostly Cloudy
6:15 PM 46.4 °F 43.5 °F 42.8 °F 87% 29.83 in 10.0 mi West 5.8 mph - N/A   Mostly Cloudy
6:34 PM 46.4 °F 41.5 °F 42.8 °F 87% 29.83 in 10.0 mi WNW 10.4 mph - N/A   Overcast
6:55 PM 46.4 °F 41.1 °F 42.8 °F 87% 29.85 in 10.0 mi WNW 11.5 mph - N/A   Drizzle
7:14 PM 46.4 °F 42.4 °F 42.8 °F 87% 29.86 in 10.0 mi WNW 8.1 mph - N/A   Light Drizzle
7:35 PM 46.4 °F 41.9 °F 42.8 °F 87% 29.87 in 10.0 mi WNW 9.2 mph - N/A Rain Rain
7:54 PM 44.6 °F 39.7 °F 42.8 °F 93% 29.88 in 10.0 mi WNW 9.2 mph - N/A   Light Drizzle
8:14 PM 44.6 °F 39.2 °F 42.8 °F 93% 29.89 in 10.0 mi WNW 10.4 mph - N/A   Drizzle
8:34 PM 44.6 °F 38.8 °F 41.0 °F 87% 29.89 in 10.0 mi WNW 11.5 mph - N/A   Light Drizzle
8:54 PM 44.6 °F 38.8 °F 41.0 °F 87% 29.90 in 10.0 mi WNW 11.5 mph 16.1 mph N/A   Overcast
9:14 PM 44.6 °F 39.2 °F 41.0 °F 87% 29.91 in 10.0 mi WNW 10.4 mph - N/A   Overcast
9:34 PM 44.6 °F 39.7 °F 39.2 °F 81% 29.92 in 10.0 mi WNW 9.2 mph - N/A   Overcast
9:54 PM 44.6 °F 39.2 °F 39.2 °F 81% 29.92 in 10.0 mi WNW 10.4 mph 16.1 mph N/A   Overcast
10:15 PM 44.6 °F 38.8 °F 39.2 °F 81% 29.93 in 10.0 mi WNW 11.5 mph - N/A   Overcast
10:34 PM 44.6 °F 39.2 °F 39.2 °F 81% 29.94 in 10.0 mi WNW 10.4 mph - N/A   Overcast
10:55 PM 44.6 °F 39.2 °F 39.2 °F 81% 29.95 in 10.0 mi WNW 10.4 mph - N/A   Overcast
11:14 PM 44.6 °F 38.4 °F 39.2 °F 81% 29.95 in 10.0 mi WNW 12.7 mph - N/A   Overcast
11:34 PM 42.8 °F 37.5 °F 39.2 °F 87% 29.96 in 10.0 mi WNW 9.2 mph - N/A   Overcast
11:54 PM 42.8 °F 37.5 °F 37.4 °F 81% 29.96 in 10.0 mi WNW 9.2 mph - N/A   Scattered Clouds